Pagrindinis puslapis
METAR-TAF:

METAR-TAF

Oro uostai :

Camiri, Bolivija

platuma: 20-00S, ilguma: 063-32W, Aukštis: 798 m

Dabartinis oras

Ataskaita buvo paskelbta 18 minutes, ne 15:00 UTC
Ramus vėjas
Temperatūra 29°C
Drėgmė 62%
Slėgis 1014 hPa
Matomumas 10 km arba daugiau

METAR: SLCA 171500Z 00000KT 9999 NSC 29/21 Q1014

Laikas: 11:18 (15:18 UTC)


TAF: trūkstamas

Orai ataskaitas ir orų prognozės (METAR, TAF).

turimą stotys yra geltonos ir raudonos taškus žemėlapyje.

Perkelti pele per norėdami pamatyti stoties vardą.

Tada spustelėkite, norėdami matyti oro stebėjimo ir prognozės.

Norėdami pakeisti žemėlapį: spustelėkite ant žalios mygtukų su juodo kryžiaus žemyn,; žalią mygtuką su brūkšneliu, jei norite nutolinti; arba žalių rodyklių gretimoms žemėlapius.


METAR-TAF: